Location: Unspecified
(20.0000°S, 0.0000°E)
Time: 01:47:46
(UTC+00:00)

NUDT-PHONESAT - Pass Details

Date: 24 July 2019
Orbit: 489 x 505 km, 97.4° (Epoch: 20 August)

Event Time Altitude Azimuth Distance (km) Brightness Sun altitude
Rises 05:01:28 0° 49° (NE) 2,584 ? -21.4°
Reaches altitude 10° 05:04:24 10° 76° (ENE) 1,713 ? -20.7°
Maximum altitude 05:06:16 14° 107° (ESE) 1,511 ? -20.3°
Drops below altitude 10° 05:08:09 10° 137° (SE) 1,728 ? -19.8°
Sets 05:11:08 0° 164° (SSE) 2,624 ? -19.2°
